Tracking 19149 objects as of 21-Apr-2018
HD Live streaming from Space Station
objects crossing your sky now

FENGYUN 1C DEB

Track FENGYUN 1C DEB now!
10-day predictions


NORAD ID: 30048
Int'l Code: 1999-025NZ
Perigee: 837.5 km
Apogee: 1,116.5 km
Inclination: 98.7 °
Period: 104.5 minutes
Semi major axis: 7348 km
RCS: 0.0161 m2 (small)
Launch date: May 10, 1999
Source: People's Republic of China (PRC)
Launch site: Taiyaun Space Center, China (TSC)

Note: This is SATELLITE DEBRIS
aabbcc
Your satellite tracking list
Your tracking list is empty




NASA's NSSDC Master Catalog

Two Line Element Set (TLE):
1 30048U 99025NZ  18110.15614081  .00000092  00000-0  11400-3 0  9997
2 30048  98.6911 171.5215 0189840 208.8575 180.9469 13.78316244566438
Source of the keplerian elements: AFSPC